Regional Weather Roundup
Issued by NWS

Home | Current Version | Previous Version | Graphics & Text | Print | Product List | Glossary On
Versions: 1 2 3 4 5 6 7 8 9 10 11 12 13 14 15 16 17 18 19 20 21 22 23 24 25 26 27 28 29 30 31 32 33 34 35 36 37 38 39 40 41 42 43 44 45 46 47 48 49 50
000
ASUS43 KLOT 210408
RWRIL

ILLINOIS REGIONAL WEATHER ROUNDUP
NATIONAL WEATHER SERVICE CHICAGO/ROMEOVILLE IL
1000 PM CST MON FEB 20 2017

NOTE: "FAIR" INDICATES FEW OR NO CLOUDS BELOW 12,000 FEET WITH NO
SIGNIFICANT WEATHER AND/OR OBSTRUCTIONS TO VISIBILITY.

* THESE STATIONS ARE NOT UNDER NWS QUALITY CONTROL. THEY ALSO MAY NOT
  REPORT WEATHER SUCH AS PRECIPITATION OR FOG.

ILZ001-002-007-009-015-016-024-210500-
NORTHWEST ILLINOIS

CITY           SKY/WX    TMP DP  RH WIND       PRES   REMARKS
MOLINE         LGT RAIN  60  55  83 S6        29.91R
STERLING*      CLOUDY    60  52  74 W6        29.91S
SAVANNA*       RAIN      57  56  97 S7        29.89F
$$

ILZ003-004-008-010-011-017-018-210500-
NORTH CENTRAL ILLINOIS

CITY           SKY/WX    TMP DP  RH WIND       PRES   REMARKS
ROCKFORD       CLOUDY    61  51  70 SW10      29.93R
FREEPORT*      LGT RAIN  56  55  94 SW7       29.91F
ROCHELLE*      CLOUDY    58  51  78 S13       29.91R
DE KALB*       CLOUDY    58  49  73 S17       29.91F
PERU*          CLOUDY    59  50  71 S8        29.91S
$$

ILZ005-006-012>014-019>023-210500-
NORTHEAST ILLINOIS

CITY           SKY/WX    TMP DP  RH WIND       PRES   REMARKS
CHICAGO-OHARE  CLOUDY    60  45  57 S16       29.91F
CHICAGO-MIDWAY CLOUDY    61  44  53 S14       29.92F
AURORA         CLOUDY    60  48  64 SE13      29.91F
LANSING*       CLOUDY    58  48  70 SE12      29.94F
JOLIET*        CLOUDY    59  49  68 SE6       29.92F
WAUKEGAN       CLOUDY    54  43  66 SE8       29.89F
DUPAGE AIRPORT MOCLDY    59  45  59 S15       29.90F
KANKAKEE*      CLOUDY    56  46  70 SE8       29.94F
WHEELING       PTCLDY    59  44  57 S15       29.92F
MORRIS*        CLOUDY    59  47  65 S9        29.90F
ROMEOVILLE*    CLOUDY    57  50  76 S14       29.92F
NORTHERLY ISL    N/A     58  43  57 S14         N/A
$$

LMZ740>746-210500-
SOUTHERN LAKE MICHIGAN

STATION/POSITION SKY/WX   TEMP    WIND        PRES    VSBY  WAVE
                          AIR SEA DIR/SP/G                  HT/PER
                          (F)     (DEG/KT/KT) (MB)    (MI)  (FT/S)
HARRISON CRIB              56     170/ 23/ 24   N/A
BURNHAM HARBOR             58     180/ 11/ 13   N/A
CALUMET HARBOR             60     160/  9/ 14 1013.4F
BURNS HARBOR               60     170/ 13/ 27 1014.6F
MICHIGAN CITY              58     130/ 21/ 25   N/A
$$

ILZ025>027-034>036-040-047-049-050-058-095>099-210500-
WEST-CENTRAL ILLINOIS

CITY           SKY/WX    TMP DP  RH WIND       PRES   REMARKS
QUINCY         LGT RAIN  60  59  96 SE6       29.90S FOG
GALESBURG*     RAIN      61  56  86 W10       29.91S
MACOMB*        MOCLDY    60  57  92 W6        29.92F
JACKSONVILLE*  MOCLDY    63  53  68 SW8       29.93R
PITTSFIELD*    RAIN      62  57  82 SW3       29.93S
$$

ILZ028>032-037-038-041>044-048-051>054-059>061-210500-
CENTRAL ILLINOIS

CITY           SKY/WX    TMP DP  RH WIND       PRES   REMARKS
PONTIAC        CLOUDY    59  52  77 S10       29.93S
BLOOMINGTON    PTCLDY    60  51  72 S16       29.93F
DECATUR        CLOUDY    62  50  64 S14       29.93F
PEORIA         MOCLDY    62  52  69 SW7       29.92R
LACON*         CLOUDY    63  51  65 S13       29.90S
LINCOLN*       PTCLDY    62  52  70 S10       29.91F
SPRINGFIELD    CLOUDY    65  52  62 S14       29.92S
TAYLORVILLE    MOCLDY    62  51  67 S13       29.93F
$$

ILZ033-039-045-046-055>057-062-063-210500-
EAST-CENTRAL ILLINOIS

CITY           SKY/WX    TMP DP  RH WIND       PRES   REMARKS
CHAMPAIGN      CLOUDY    56  48  74 SE9       29.94F
RANTOUL*       CLOUDY    59  50  71 SE9       29.94F
MATTOON        CLOUDY    61  50  67 S12       29.94F
PARIS*         MOCLDY    57  47  70 SE8       29.98F
$$

ILZ079-100>102-210500-
SOUTHWEST ILLINOIS

CITY           SKY/WX    TMP DP  RH WIND       PRES   REMARKS
ALTON          CLOUDY    61  52  72 E6        29.93S
BELLEVILLE     CLOUDY    63  54  72 E3        29.92S
CAHOKIA*       CLOUDY    64  53  67 S5        29.92S
SPARTA*        CLOUDY    62  52  70 SE8       29.95S
$$

ILZ064>066-069>071-074>076-080>082-084>086-088>090-092>094-210500-
SOUTH-CENTRAL ILLINOIS

CITY           SKY/WX    TMP DP  RH WIND       PRES   REMARKS
CARBONDALE     MOCLDY    61  52  72 SE8       29.95S
CAIRO*         PTCLDY    60  52  75 SE7       29.95S
EFFINGHAM*     PTCLDY    60  52  74 SE7       29.97F
MARION         CLOUDY    63  52  67 SE7       29.97S
MT. VERNON     MOCLDY    62  51  67 SE3       29.96F
CENTRALIA*     CLOUDY    64  53  68 SE9       29.94F
SALEM*         MOCLDY    64  51  62 SE8       29.95F
METROPOLIS*    CLOUDY    57  50  79 CALM      29.98R
$$

ILZ067-068-072-073-078-083-087-091-210500-
SOUTHEAST ILLINOIS

CITY           SKY/WX    TMP DP  RH WIND       PRES   REMARKS
LAWRENCEVILLE  CLOUDY    55  46  71 SE8       29.99F
FLORA*         CLOUDY    58  51  76 S6        29.97F
FAIRFIELD*     CLOUDY    61  49  65 SE3       29.96F
HARRISBURG*    CLOUDY    58  52  79 E6        29.97F
ROBINSON*      CLOUDY    58  48  69 S9        30.00S
CARMI*         CLOUDY    54  49  84 SE3       29.97F
$$

ABBREVIATIONS USED IN REMARKS
   TC - TEMPERATURE IN CELSIUS
  WCI - WIND CHILL INDEX
   HX - HEAT INDEX
  VSB - VISIBILITY
$$




USA.gov is the U.S. government's official web portal to all federal, state and local government web resources and services.